TeikyoSat 4
1 49396U 21102B   25310.51744633  .00003859  00000-0  25177-3 0  9991
2 49396  97.3943 343.4739 0011883 346.5076  13.5834 15.08387587219146
Z-Sat
1 49399U 21102E   25310.87472404  .00007018  00000-0  36840-3 0  9997
2 49399  97.3627 347.8995 0016024 305.7863  54.1880 15.15918222219734
KOSEN 1
1 49402U 21102H   25310.57138394  .00012481  00000-0  53616-3 0  9996
2 49402  97.3527 352.2265 0013219 273.6477  86.3248 15.22738649220092
HO-113
1 50466U 21131B   25310.82283360  .00000891  00000-0  29062-3 0  9992
2 50466  98.5069  39.4247 0004921  56.8143 303.3517 14.41034244203084
SNUGLITE 2
1 52899U 22065F   25310.36742968  .00001849  00000-0  36441-3 0  9997
2 52899  98.1904  91.1157 0007612  12.0933 348.0451 14.63675767178399
UmKA 1 (RS40S)
1 57172U 23091G   25310.81244654  .00010067  00000-0  50507-3 0  9996
2 57172  97.5393   5.4416 0014101 167.7689 192.3889 15.17432881130241
CubeBel-2 (EU11S)
1 57175U 23091K   25310.79084904  .00017184  00000-0  73759-3 0  9997
2 57175  97.5390   7.6021 0011508 171.1283 189.0158 15.22717902130387
ENSO
1 58470U 23185J   25310.71288499  .02412422  23797-5  16177-2 0  9996
2 58470  97.3393  33.6303 0008707 270.8505  89.1785 16.16818727108584
SONATE-2
1 59112U 24043Q   25310.80782573  .00034067  00000-0  78596-3 0  9990
2 59112  97.5322  85.7955 0008911 296.5826  63.4507 15.42448587 93436
MO-122
1 60209U 24125G   25310.51254917  .00041977  00000-0  93963-3 0  9997
2 60209  97.2564 160.9289 0014973 322.6355  37.3850 15.43227581 75014
GRBBeta
1 60237U 24128C   25310.39620522  .00007372  00000-0  52396-3 0  9992
2 60237  61.9906 276.6447 0057111  88.9299 271.8335 15.04207794 72723
Curium One
1 60242U 24128H   25310.26979414  .00014111  00000-0  89365-3 0  9996
2 60242  61.9802 272.7848 0057115  85.4400 275.3214 15.07883366 72785
ROBUSTA-3A
1 60243U 24128J   25310.39100422  .00014156  00000-0  91150-3 0  9990
2 60243  61.9875 273.7392 0056841  83.0607 277.6947 15.07288711 72780
CatSat
1 60246U 24125J   25310.51900932  .00046947  00000-0  12634-2 0  9990
2 60246  97.2376 158.3693 0034718 279.1374  80.5944 15.37098216 72950
HYPERVIEW-1G (RS66S)
1 61772U 24199AP  25310.81878941  .00044074  00000-0  96025-3 0  9999
2 61772  97.3250 179.8957 0012329  22.2017 337.9762 15.44060416100063
AO-123
1 61781U 24199AY  25310.86599422  .00014394  00000-0  48195-3 0  9995
2 61781  97.3284 176.7272 0016092  30.2289 329.9878 15.30926978 99859
ZIMSAT 2
1 61783U 24199BA  25310.87953884  .00142213  00000-0  17566-2 0  9993
2 61783  97.3171 182.4424 0009740  21.5222 338.6442 15.59613478103399
HADES-R (SO-124)
1 62690U 25009CK  25309.70683572  .00140979  00000-0  27543-2 0  9999
2 62690  97.3959  31.2451 0003027 264.0763  96.0141 15.46934669 45039
HYDRA-T
1 62692U 25009CM  25310.16719125  .00142075  00000-0  26839-2 0  9993
2 62692  97.3954  31.8489 0003053 255.2884 104.8028 15.47905902 45118
JINJUSat 1B
1 63210U 25052A   25310.65167896  .00024384  00000-0  97714-3 0  9997
2 63210  97.4210 203.0735 0004977 127.4419 232.7272 15.25010590 36082
NUSHSAT 1
1 63211U 25052B   25310.66879308  .00026530  00000-0  10377-2 0  9991
2 63211  97.4194 203.1692 0004764 129.8297 230.3361 15.25803916 36097
TEVEL2-4
1 63213U 25052D   25310.19600998  .00025283  00000-0  10066-2 0  9997
2 63213  97.4119 202.3247 0003486 135.4051 224.7468 15.25228825 36011
TEVEL2-5
1 63214U 25052E   25310.65917047  .00025315  00000-0  10087-2 0  9994
2 63214  97.4115 202.7753 0003485 136.7130 223.4382 15.25199327 36087
TEVEL2-6
1 63215U 25052F   25310.66534907  .00025780  00000-0  10286-2 0  9993
2 63215  97.4118 202.7713 0003551 137.1440 223.0075 15.25152280 36082
TEVEL2-1
1 63217U 25052H   25310.17576222  .00025031  00000-0  10084-2 0  9992
2 63217  97.4093 202.1268 0003024 149.5283 210.6131 15.24833959 36007
TEVEL2-3
1 63218U 25052J   25310.43789433  .00025123  00000-0  10112-2 0  9996
2 63218  97.4095 202.3901 0003046 150.2227 209.9185 15.24862781 36046
TEVEL2-2
1 63219U 25052K   25310.43903644  .00024582  00000-0  99006-3 0  9997
2 63219  97.4093 202.3874 0003069 149.8997 210.2417 15.24846502 36043
TEVEL2-9
1 63237U 25052AD  25310.69594653  .00023543  00000-0  98795-3 0  9991
2 63237  97.4162 202.3962 0005934 192.2341 167.8752 15.23460196 36056
TEVEL2-7
1 63238U 25052AE  25310.64092586  .00023787  00000-0  10019-2 0  9997
2 63238  97.4161 202.3234 0006050 193.0788 167.0293 15.23333112 36040
TEVEL2-8
1 63239U 25052AF  25310.25179216  .00023305  00000-0  98310-3 0  9998
2 63239  97.4155 201.9252 0006054 195.7407 164.3642 15.23284552 35983
HYDRA-W
1 63490U 25052BL  25309.94736672  .00066419  00000-0  19311-2 0  9992
2 63490  97.4084 203.3717 0007264 178.8048 181.3214 15.35185466 36063
HADES-ICM (SO-125)
1 63492U 25052BN  25310.22970198  .00077865  00000-0  23518-2 0  9991
2 63492  97.4091 203.4741 0007570 185.7464 174.3693 15.33925454 36093
Dragonfly
1 65729U 98067XH  25310.29850792  .00128074  00000-0  14973-2 0  9990
2 65729  51.6311 320.7027 0003930  83.8399 276.3042 15.60650724  7450
RSP-03
1 65732U 98067XL  25310.82696374  .00096122  00000-0  11758-2 0  9993
2 65732  51.6307 318.2312 0005963  67.2249 292.9374 15.59593476  7546
GHS-01
1 65733U 98067XM  25310.60796127  .00129845  00000-0  14655-2 0  9995
2 65733  51.6317 319.0201 0004505  83.4178 276.7328 15.61556735  7512
BOTAN
1 65942U 98067XP  25310.23832496  .00095041  00000-0  13891-2 0  9997
2 65942  51.6323 322.5492 0004830  28.2597 331.8656 15.54833848  4176
